When you browse on this site, cookies collect data to enhance your experience and personalize the content and advertising you see.
Visit our Privacy Policy to learn more. By continuing to use the site, you agree to this use of cookies and data.
  • En España
  • Lista de países
  • Para 7 días
  • Temperatura del agua
  • El tiempo en el mapa
  • Informadores
  • user-avatar
    Iniciar sesión

    Tiempo cada hora Petropavlovsk

    Hoy, 23 Agosto, Viernes

    Tiempo Temperatura Precipitaciones Viento Presión Humedad
    00:00 +14°C° 0 mm 1 mps 752 mmHg 85%
    01:00 +14°C° 0 mm 2 mps 752 mmHg 86%
    02:00 +14°C° 0 mm 2 mps 752 mmHg 88%
    03:00 +14°C° 0 mm 2 mps 752 mmHg 88%
    04:00 +13°C° 0 mm 2 mps 752 mmHg 89%
    05:00 +13°C° 0 mm 2 mps 753 mmHg 91%
    06:00 +15°C° 0 mm 2 mps 753 mmHg 84%
    07:00 +16°C° 0 mm 2 mps 753 mmHg 78%
    08:00 +18°C° 0 mm 2 mps 753 mmHg 71%
    09:00 +20°C° 0 mm 3 mps 753 mmHg 65%
    10:00 +21°C° 0 mm 3 mps 753 mmHg 59%
    11:00 +23°C° 0 mm 4 mps 753 mmHg 52%
    12:00 +25°C° 0 mm 4 mps 753 mmHg 52%
    13:00 +25°C° 0 mm 4 mps 752 mmHg 51%
    14:00 +25°C° 0 mm 4 mps 752 mmHg 51%
    15:00 +25°C° 0 mm 5 mps 752 mmHg 52%
    16:00 +25°C° 0 mm 5 mps 752 mmHg 54%
    17:00 +25°C° 0 mm 5 mps 752 mmHg 55%
    18:00 +22°C° 0 mm 4 mps 752 mmHg 62%
    19:00 +21°C° 0 mm 4 mps 751 mmHg 69%
    20:00 +19°C° 0 mm 3 mps 751 mmHg 76%
    21:00 +18°C° 0 mm 3 mps 751 mmHg 77%
    22:00 +18°C° 0 mm 4 mps 751 mmHg 79%
    23:00 +17°C° 0 mm 4 mps 750 mmHg 81%

    Mañana, 24 Agosto, Sábado

    Tiempo Temperatura Precipitaciones Viento Presión Humedad
    00:00 +17°C° 0 mm 4 mps 750 mmHg 80%
    01:00 +17°C° 0 mm 4 mps 750 mmHg 79%
    02:00 +16°C° 0 mm 5 mps 749 mmHg 79%
    03:00 +17°C° 0.1 mm 4 mps 749 mmHg 78%
    04:00 +17°C° 0.1 mm 4 mps 750 mmHg 78%
    05:00 +17°C° 0.1 mm 4 mps 750 mmHg 78%
    06:00 +18°C° 0.1 mm 4 mps 750 mmHg 79%
    07:00 +18°C° 0.1 mm 4 mps 750 mmHg 80%
    08:00 +18°C° 0.1 mm 4 mps 750 mmHg 81%
    09:00 +19°C° 0 mm 5 mps 750 mmHg 72%
    10:00 +20°C° 0 mm 5 mps 750 mmHg 64%
    11:00 +21°C° 0 mm 5 mps 751 mmHg 55%
    12:00 +22°C° 0 mm 6 mps 750 mmHg 53%
    13:00 +22°C° 0 mm 6 mps 750 mmHg 51%
    14:00 +22°C° 0 mm 6 mps 750 mmHg 49%
    15:00 +22°C° 0 mm 6 mps 750 mmHg 50%
    16:00 +22°C° 0 mm 6 mps 750 mmHg 52%
    17:00 +22°C° 0 mm 6 mps 750 mmHg 53%
    18:00 +20°C° 0 mm 5 mps 750 mmHg 60%
    19:00 +18°C° 0 mm 4 mps 750 mmHg 66%
    20:00 +17°C° 0 mm 3 mps 750 mmHg 72%
    21:00 +16°C° 0 mm 3 mps 750 mmHg 75%
    22:00 +14°C° 0 mm 3 mps 751 mmHg 78%
    23:00 +14°C° 0 mm 3 mps 751 mmHg 81%

    Pasado mañana, 25 Agosto, Domingo

    Tiempo Temperatura Precipitaciones Viento Presión Humedad
    00:00 +13°C° 0 mm 3 mps 751 mmHg 83%
    01:00 +13°C° 0 mm 3 mps 751 mmHg 86%
    02:00 +13°C° 0 mm 2 mps 751 mmHg 88%
    03:00 +13°C° 0 mm 2 mps 751 mmHg 89%
    04:00 +13°C° 0 mm 2 mps 751 mmHg 90%
    05:00 +12°C° 0 mm 1 mps 751 mmHg 91%
    06:00 +14°C° 0 mm 2 mps 751 mmHg 85%
    07:00 +15°C° 0 mm 2 mps 751 mmHg 80%
    08:00 +17°C° 0 mm 2 mps 751 mmHg 74%
    09:00 +18°C° 0 mm 2 mps 751 mmHg 66%
    10:00 +20°C° 0 mm 3 mps 751 mmHg 59%
    11:00 +21°C° 0 mm 3 mps 751 mmHg 52%
    12:00 +22°C° 0 mm 3 mps 751 mmHg 49%
    13:00 +24°C° 0 mm 3 mps 750 mmHg 46%
    14:00 +24°C° 0 mm 3 mps 750 mmHg 42%
    15:00 +24°C° 0 mm 3 mps 750 mmHg 44%
    16:00 +24°C° 0 mm 3 mps 750 mmHg 45%
    17:00 +24°C° 0 mm 3 mps 749 mmHg 47%
    18:00 +21°C° 0 mm 3 mps 749 mmHg 53%
    19:00 +19°C° 0 mm 2 mps 749 mmHg 58%
    20:00 +18°C° 0 mm 1 mps 749 mmHg 64%
    21:00 +17°C° 0 mm 2 mps 749 mmHg 65%
    22:00 +16°C° 0 mm 2 mps 748 mmHg 65%
    23:00 +16°C° 0 mm 2 mps 748 mmHg 66%

    26 Agosto, Lunes

    Tiempo Temperatura Precipitaciones Viento Presión Humedad
    00:00 +15°C° 0 mm 2 mps 748 mmHg 66%
    01:00 +15°C° 0 mm 2 mps 747 mmHg 66%
    02:00 +14°C° 0 mm 2 mps 747 mmHg 67%
    03:00 +14°C° 0 mm 2 mps 747 mmHg 67%
    04:00 +14°C° 0 mm 2 mps 746 mmHg 68%
    05:00 +14°C° 0 mm 2 mps 746 mmHg 68%
    06:00 +14°C° 0.1 mm 2 mps 746 mmHg 69%
    07:00 +15°C° 0.1 mm 2 mps 745 mmHg 70%
    08:00 +15°C° 0.1 mm 2 mps 745 mmHg 72%
    09:00 +15°C° 1 mm 2 mps 745 mmHg 77%
    10:00 +14°C° 1 mm 3 mps 744 mmHg 82%
    11:00 +14°C° 1 mm 3 mps 744 mmHg 87%
    12:00 +14°C° 0.8 mm 5 mps 744 mmHg 85%
    13:00 +15°C° 0.8 mm 6 mps 743 mmHg 83%
    14:00 +15°C° 0.8 mm 7 mps 742 mmHg 81%
    15:00 +15°C° 0.2 mm 5 mps 742 mmHg 81%
    16:00 +17°C° 0.2 mm 4 mps 742 mmHg 82%
    17:00 +17°C° 0.2 mm 3 mps 741 mmHg 82%
    18:00 +16°C° 0.6 mm 3 mps 741 mmHg 85%
    19:00 +16°C° 0.6 mm 3 mps 741 mmHg 89%
    20:00 +16°C° 0.6 mm 2 mps 741 mmHg 92%
    21:00 +14°C° 0.1 mm 3 mps 741 mmHg 93%
    22:00 +14°C° 0.1 mm 3 mps 741 mmHg 95%
    23:00 +14°C° 0.1 mm 3 mps 741 mmHg 97%

    27 Agosto, Martes

    Tiempo Temperatura Precipitaciones Viento Presión Humedad
    00:00 +13°C° 0 mm 3 mps 741 mmHg 97%
    01:00 +13°C° 0 mm 3 mps 740 mmHg 97%
    02:00 +13°C° 0 mm 3 mps 740 mmHg 97%
    03:00 +12°C° 0 mm 3 mps 740 mmHg 97%
    04:00 +12°C° 0 mm 3 mps 740 mmHg 97%
    05:00 +11°C° 0 mm 3 mps 741 mmHg 97%
    06:00 +11°C° 0 mm 4 mps 741 mmHg 95%
    07:00 +12°C° 0 mm 4 mps 741 mmHg 94%
    08:00 +12°C° 0 mm 5 mps 741 mmHg 92%
    09:00 +12°C° 0.1 mm 5 mps 741 mmHg 90%
    10:00 +13°C° 0.1 mm 5 mps 741 mmHg 87%
    11:00 +13°C° 0.1 mm 5 mps 742 mmHg 85%
    12:00 +13°C° 0 mm 5 mps 742 mmHg 83%
    13:00 +13°C° 0 mm 6 mps 742 mmHg 82%
    14:00 +13°C° 0 mm 6 mps 742 mmHg 81%
    15:00 +11°C° 0 mm 6 mps 743 mmHg 82%
    16:00 +11°C° 0 mm 6 mps 743 mmHg 83%
    17:00 +11°C° 0 mm 6 mps 743 mmHg 84%
    18:00 +10°C° 0 mm 6 mps 744 mmHg 84%
    19:00 +10°C° 0 mm 5 mps 744 mmHg 84%
    20:00 +10°C° 0 mm 5 mps 744 mmHg 83%
    21:00 +10°C° 0 mm 5 mps 744 mmHg 83%
    22:00 +10°C° 0 mm 5 mps 744 mmHg 83%
    23:00 +10°C° 0 mm 5 mps 744 mmHg 83%

    28 Agosto, Miércoles

    Tiempo Temperatura Precipitaciones Viento Presión Humedad
    00:00 +10°C° 0 mm 4 mps 744 mmHg 85%
    01:00 +8°C° 0 mm 4 mps 745 mmHg 87%
    02:00 +7°C° 0 mm 4 mps 745 mmHg 88%
    03:00 +7°C° 0 mm 4 mps 745 mmHg 90%
    04:00 +8°C° 0 mm 3 mps 745 mmHg 91%
    05:00 +7°C° 0 mm 3 mps 746 mmHg 92%
    06:00 +9°C° 0 mm 3 mps 746 mmHg 88%
    07:00 +10°C° 0 mm 3 mps 746 mmHg 84%
    08:00 +11°C° 0 mm 3 mps 746 mmHg 79%
    09:00 +13°C° 0 mm 3 mps 746 mmHg 71%
    10:00 +16°C° 0 mm 3 mps 746 mmHg 63%
    11:00 +17°C° 0 mm 3 mps 746 mmHg 54%
    12:00 +18°C° 0 mm 3 mps 746 mmHg 51%
    13:00 +19°C° 0 mm 3 mps 746 mmHg 48%
    14:00 +20°C° 0 mm 4 mps 746 mmHg 44%
    15:00 +20°C° 0 mm 3 mps 746 mmHg 47%
    16:00 +20°C° 0 mm 3 mps 746 mmHg 49%
    17:00 +20°C° 0 mm 2 mps 746 mmHg 51%
    18:00 +19°C° 0 mm 2 mps 746 mmHg 54%
    19:00 +18°C° 0 mm 3 mps 746 mmHg 56%
    20:00 +17°C° 0 mm 3 mps 745 mmHg 58%
    21:00 +16°C° 0 mm 3 mps 745 mmHg 61%
    22:00 +14°C° 0 mm 3 mps 745 mmHg 64%
    23:00 +13°C° 0 mm 3 mps 745 mmHg 67%
    Mostrar más